Regional Weather Roundup
Issued by NWS

Home | Current Version | Previous Version | Graphics & Text | Print | Product List | Glossary On
Versions: 1 2 3 4 5 6 7 8 9 10 11 12 13 14 15 16 17 18 19 20 21 22 23 24 25 26 27 28 29 30 31 32 33 34 35 36 37 38 39 40 41 42 43 44 45 46 47 48 49 50
000
ASUS43 KLSX 271510
RWRMO

WEATHER SUMMARY FOR MISSOURI
NATIONAL WEATHER SERVICE SPRINGFIELD MO
1000 AM CDT WED JUL 27 2016

NOTE: "FAIR" INDICATES FEW OR NO CLOUDS BELOW 12,000 FEET WITH NO
       SIGNIFICANT WEATHER AND/OR OBSTRUCTIONS TO VISIBILITY.
       CURRENT SKY AND/OR WEATHER CONDITIONS ARE NOT AVAILABLE FOR
       CHILLICOTHE AND FARMINGTON.

MOZ001>031-035>038-043-044-053-054-271600-
...NORTHERN AND WESTERN MISSOURI...

CITY           SKY/WX    TMP DP  RH WIND       PRES   REMARKS
KANSAS CTY INT MOSUNNY   80  72  76 SE5       30.00R
KANSAS C DTWN  MOSUNNY   82  71  69 SE6       29.98S
LEE`S SUMMIT   MOSUNNY   79  72  79 VRB3      30.01R
ST JOSEPH      SUNNY     80  69  69 SE10      29.97F
CHILLICOTHE      N/A     82  70  66 SE5       30.00S
KIRKSVILLE     MOSUNNY   81  70  69 E6        30.02R

$$
MOZ066>068-077>081-088>096-101>105-271600-
...SOUTHWEST MISSOURI...

CITY           SKY/WX    TMP DP  RH WIND       PRES   REMARKS
SPRINGFIELD    LGT RAIN  74  71  91 S8        30.01F
JOPLIN         CLOUDY    79  75  87 E3        30.01S
BRANSON        PTSUNNY   77  73  88 CALM      30.04S

$$
MOZ032>034-039>042-045>050-055>058-069>072-271600-
...CENTRAL MISSOURI...

CITY           SKY/WX    TMP DP  RH WIND       PRES   REMARKS
COLUMBIA       MOSUNNY   81  74  79 S6        30.00S
JEFFERSON CITY MOSUNNY   81  74  79 VRB5      29.99R
ROLLA          MOSUNNY   78  72  81 S5        30.00F
SEDALIA        SUNNY     82  72  71 S5        30.00F
WHITEMAN AFB   PTSUNNY   82  76  83 S5        29.98S
OSAGE BEACH    PTSUNNY   79  74  84 S5        30.02R

$$
MOZ051-052-059>065-271600-
...EAST CENTRAL MISSOURI...

CITY           SKY/WX    TMP DP  RH WIND       PRES   REMARKS
ST LOUIS INTL  PTSUNNY   81  71  71 S6        30.00F
SPIRIT OF STL  PTSUNNY   80  74  81 VRB3      29.98F
ST CHARLES     MOSUNNY   81  75  82 VRB7      29.98F

$$
MOZ072>076-082>087-097>100-106>115-271600-
...SOUTH CENTRAL AND SOUTHEAST MISSOURI...

CITY           SKY/WX    TMP DP  RH WIND       PRES   REMARKS
CAPE GIRARDEAU PTSUNNY   83  76  79 NW13      30.00R HX  91
FARMINGTON     CLOUDY    71  71 100 SE3       30.02F
POPLAR BLUFF   SUNNY     82  76  81 N6        29.98R
WEST PLAINS    MOSUNNY   82  72  71 CALM      30.04S

$$



USA.gov is the U.S. government's official web portal to all federal, state and local government web resources and services.